When you browse on this site, cookies collect data to enhance your experience and personalize the content and advertising you see.
Visit our Privacy Policy to learn more. By continuing to use the site, you agree to this use of cookies and data.
  • In United Kingdom
  • List of Countries
  • For 7 days
  • Water Temperature
  • Satellite Maps
  • Weather Map
  • Weather Widgets
  • user-avatar
    Login

    Hourly Weather Ngozi

    Today, 20 January, Sunday

    Time Temperature Precipitation Wind Pressure Humidity
    00:00 +16°C° 0 mm 1 mps 619 mmHg 91%
    01:00 +15°C° 0 mm 1 mps 619 mmHg 91%
    02:00 +15°C° 0 mm 1 mps 618 mmHg 91%
    03:00 +15°C° 0 mm 1 mps 618 mmHg 91%
    04:00 +15°C° 0 mm 1 mps 618 mmHg 90%
    05:00 +14°C° 0 mm 1 mps 618 mmHg 90%
    06:00 +16°C° 0 mm 1 mps 619 mmHg 85%
    07:00 +18°C° 0 mm 1 mps 620 mmHg 80%
    08:00 +20°C° 0 mm 1 mps 621 mmHg 74%
    09:00 +23°C° 0 mm 1 mps 621 mmHg 62%
    10:00 +26°C° 0 mm 1 mps 622 mmHg 50%
    11:00 +28°C° 0 mm 1 mps 623 mmHg 38%
    12:00 +28°C° 0 mm 1 mps 622 mmHg 38%
    13:00 +28°C° 0 mm 1 mps 621 mmHg 39%
    14:00 +28°C° 0 mm 1 mps 620 mmHg 39%
    15:00 +27°C° 0 mm 1 mps 620 mmHg 42%
    16:00 +26°C° 0 mm 1 mps 619 mmHg 45%
    17:00 +25°C° 0 mm 1 mps 619 mmHg 48%
    18:00 +23°C° 0 mm 1 mps 619 mmHg 54%
    19:00 +21°C° 0 mm 1 mps 619 mmHg 61%
    20:00 +19°C° 0 mm 1 mps 619 mmHg 67%
    21:00 +19°C° 0.2 mm 1 mps 619 mmHg 69%
    22:00 +18°C° 0.2 mm 1 mps 619 mmHg 72%
    23:00 +16°C° 0.2 mm 1 mps 620 mmHg 74%

    Tomorrow, 21 January, Monday

    Time Temperature Precipitation Wind Pressure Humidity
    00:00 +16°C° 0.4 mm 1 mps 619 mmHg 77%
    01:00 +15°C° 0.4 mm 1 mps 619 mmHg 79%
    02:00 +15°C° 0.4 mm 1 mps 619 mmHg 82%
    03:00 +15°C° 0.1 mm 1 mps 619 mmHg 82%
    04:00 +15°C° 0.1 mm 1 mps 619 mmHg 82%
    05:00 +15°C° 0.1 mm 1 mps 619 mmHg 81%
    06:00 +16°C° 0 mm 1 mps 620 mmHg 77%
    07:00 +19°C° 0 mm 1 mps 621 mmHg 73%
    08:00 +20°C° 0 mm 1 mps 621 mmHg 69%
    09:00 +23°C° 0 mm 1 mps 622 mmHg 60%
    10:00 +25°C° 0 mm 1 mps 623 mmHg 50%
    11:00 +28°C° 0 mm 1 mps 623 mmHg 41%
    12:00 +28°C° 0 mm 1 mps 622 mmHg 42%
    13:00 +27°C° 0 mm 1 mps 621 mmHg 43%
    14:00 +27°C° 0 mm 1 mps 620 mmHg 44%
    15:00 +25°C° 0 mm 1 mps 619 mmHg 50%
    16:00 +24°C° 0 mm 1 mps 619 mmHg 55%
    17:00 +22°C° 0 mm 1 mps 618 mmHg 60%
    18:00 +21°C° 0 mm 1 mps 618 mmHg 64%
    19:00 +20°C° 0 mm 1 mps 619 mmHg 68%
    20:00 +19°C° 0 mm 1 mps 619 mmHg 73%
    21:00 +18°C° 0 mm 1 mps 619 mmHg 75%
    22:00 +18°C° 0 mm 1 mps 619 mmHg 78%
    23:00 +16°C° 0 mm 1 mps 619 mmHg 81%

    Day after tomorrow, 22 January, Tuesday

    Time Temperature Precipitation Wind Pressure Humidity
    00:00 +16°C° 0 mm 1 mps 619 mmHg 82%
    01:00 +16°C° 0 mm 1 mps 619 mmHg 82%
    02:00 +16°C° 0 mm 1 mps 618 mmHg 83%
    03:00 +15°C° 0 mm 1 mps 618 mmHg 83%
    04:00 +15°C° 0 mm 1 mps 618 mmHg 83%
    05:00 +15°C° 0 mm 1 mps 618 mmHg 83%
    06:00 +18°C° 0 mm 1 mps 619 mmHg 77%
    07:00 +19°C° 0 mm 1 mps 620 mmHg 70%
    08:00 +21°C° 0 mm 1 mps 621 mmHg 63%
    09:00 +23°C° 0 mm 1 mps 621 mmHg 54%
    10:00 +25°C° 0 mm 2 mps 622 mmHg 45%
    11:00 +28°C° 0 mm 3 mps 622 mmHg 36%
    12:00 +28°C° 0 mm 2 mps 621 mmHg 36%
    13:00 +28°C° 0 mm 2 mps 621 mmHg 36%
    14:00 +28°C° 0 mm 2 mps 620 mmHg 35%
    15:00 +27°C° 0 mm 2 mps 619 mmHg 41%
    16:00 +25°C° 0 mm 1 mps 618 mmHg 47%
    17:00 +23°C° 0 mm 1 mps 618 mmHg 53%
    18:00 +22°C° 0 mm 1 mps 618 mmHg 56%
    19:00 +21°C° 0 mm 1 mps 618 mmHg 59%
    20:00 +20°C° 0 mm 1 mps 619 mmHg 62%
    21:00 +19°C° 0 mm 1 mps 619 mmHg 65%
    22:00 +19°C° 0 mm 1 mps 619 mmHg 68%
    23:00 +18°C° 0 mm 1 mps 619 mmHg 71%

    23 January, Wednesday

    Time Temperature Precipitation Wind Pressure Humidity
    00:00 +16°C° 0 mm 1 mps 618 mmHg 73%
    01:00 +16°C° 0 mm 1 mps 617 mmHg 76%
    02:00 +15°C° 0 mm 1 mps 617 mmHg 78%
    03:00 +15°C° 0 mm 1 mps 617 mmHg 78%
    04:00 +15°C° 0 mm 1 mps 617 mmHg 78%
    05:00 +15°C° 0 mm 1 mps 617 mmHg 78%
    06:00 +18°C° 0 mm 1 mps 618 mmHg 70%
    07:00 +20°C° 0 mm 1 mps 619 mmHg 63%
    08:00 +22°C° 0 mm 1 mps 620 mmHg 56%
    09:00 +24°C° 0 mm 1 mps 621 mmHg 48%
    10:00 +27°C° 0 mm 2 mps 621 mmHg 40%
    11:00 +29°C° 0 mm 2 mps 622 mmHg 32%
    12:00 +29°C° 0 mm 2 mps 621 mmHg 32%
    13:00 +29°C° 0 mm 2 mps 620 mmHg 32%
    14:00 +29°C° 0 mm 2 mps 619 mmHg 33%
    15:00 +28°C° 0 mm 2 mps 619 mmHg 37%
    16:00 +26°C° 0 mm 1 mps 618 mmHg 42%
    17:00 +25°C° 0 mm 1 mps 618 mmHg 47%
    18:00 +24°C° 0 mm 1 mps 618 mmHg 50%
    19:00 +22°C° 0 mm 1 mps 618 mmHg 53%
    20:00 +21°C° 0 mm 1 mps 619 mmHg 56%
    21:00 +20°C° 0 mm 1 mps 619 mmHg 58%
    22:00 +19°C° 0 mm 1 mps 619 mmHg 60%
    23:00 +19°C° 0 mm 1 mps 619 mmHg 62%

    24 January, Thursday

    Time Temperature Precipitation Wind Pressure Humidity
    00:00 +18°C° 0 mm 1 mps 618 mmHg 63%
    01:00 +18°C° 0 mm 1 mps 618 mmHg 64%
    02:00 +16°C° 0 mm 1 mps 617 mmHg 65%
    03:00 +16°C° 0 mm 1 mps 617 mmHg 66%
    04:00 +15°C° 0 mm 1 mps 617 mmHg 66%
    05:00 +15°C° 0 mm 1 mps 617 mmHg 67%
    06:00 +18°C° 0 mm 1 mps 619 mmHg 62%
    07:00 +20°C° 0 mm 1 mps 620 mmHg 57%
    08:00 +22°C° 0 mm 1 mps 621 mmHg 52%
    09:00 +25°C° 0 mm 1 mps 621 mmHg 45%
    10:00 +27°C° 0 mm 2 mps 622 mmHg 37%
    11:00 +30°C° 0 mm 2 mps 622 mmHg 30%
    12:00 +30°C° 0 mm 3 mps 621 mmHg 30%
    13:00 +30°C° 0 mm 3 mps 620 mmHg 31%
    14:00 +30°C° 0 mm 3 mps 620 mmHg 31%
    15:00 +29°C° 0 mm 2 mps 619 mmHg 37%
    16:00 +28°C° 0 mm 2 mps 619 mmHg 42%
    17:00 +26°C° 0 mm 1 mps 618 mmHg 48%
    18:00 +24°C° 1 mm 1 mps 618 mmHg 59%
    19:00 +21°C° 1 mm 1 mps 618 mmHg 71%
    20:00 +17°C° 1 mm 2 mps 618 mmHg 82%
    21:00 +17°C° 0.4 mm 2 mps 618 mmHg 83%
    22:00 +16°C° 0.4 mm 1 mps 618 mmHg 84%
    23:00 +15°C° 0.4 mm 1 mps 618 mmHg 84%

    25 January, Friday

    Time Temperature Precipitation Wind Pressure Humidity
    00:00 +15°C° 0 mm 1 mps 618 mmHg 84%
    01:00 +15°C° 0 mm 1 mps 618 mmHg 84%
    02:00 +15°C° 0 mm 1 mps 617 mmHg 84%
    03:00 +15°C° 0 mm 1 mps 617 mmHg 84%
    04:00 +15°C° 0 mm 1 mps 618 mmHg 84%
    05:00 +15°C° 0 mm 1 mps 618 mmHg 83%
    06:00 +16°C° 0 mm 1 mps 619 mmHg 78%
    07:00 +17°C° 0 mm 0 mps 620 mmHg 72%
    08:00 +19°C° 0 mm 0 mps 621 mmHg 67%
    09:00 +23°C° 0 mm 1 mps 621 mmHg 59%
    10:00 +25°C° 0 mm 1 mps 622 mmHg 51%
    11:00 +28°C° 0 mm 2 mps 622 mmHg 43%
    12:00 +28°C° 0.1 mm 2 mps 622 mmHg 42%
    13:00 +28°C° 0.1 mm 2 mps 621 mmHg 42%
    14:00 +27°C° 0.1 mm 2 mps 620 mmHg 42%
    15:00 +27°C° 0 mm 2 mps 620 mmHg 44%
    16:00 +27°C° 0 mm 2 mps 619 mmHg 46%
    17:00 +26°C° 0 mm 1 mps 619 mmHg 48%
    18:00 +24°C° 0 mm 1 mps 619 mmHg 56%
    19:00 +22°C° 0 mm 1 mps 619 mmHg 64%
    20:00 +19°C° 0 mm 1 mps 619 mmHg 72%
    21:00 +19°C° 0 mm 1 mps 619 mmHg 75%
    22:00 +18°C° 0 mm 1 mps 619 mmHg 77%
    23:00 +18°C° 0 mm 1 mps 619 mmHg 80%
    Show more